Weather History for KMGN - October, 2012

Change the Weather History Date:

Tuesday, October 9, 2012

  Actual Average (KPLN) Record (KPLN)
Temperature  
Mean Temperature 48 °F -  
Max Temperature 55 °F 56 °F 80 °F (2003)
Min Temperature 41 °F 37 °F 21 °F (1989)
Degree Days  
Heating Degree Days 17    
Moisture  
Dew Point 39 °F    
Average Humidity 67    
Maximum Humidity 85    
Minimum Humidity 43    
Precipitation  
Precipitation 0.00 in - - ()
Sea Level Pressure  
Sea Level Pressure 29.76 in    
Wind  
Wind Speed 10 mph (SW)    
Max Wind Speed 20 mph    
Max Gust Speed 31 mph    
Visibility 9 miles    
Events Rain    
Averages and records for this station are not official NWS values.
T = Trace of Precipitation, MM = Missing Value Source: NWS Daily Summary

Daily Weather History Graph

Daily Weather History Graph

Search for Another Location

Airport or City:

Trip Planner

Search our weather history database for the weather conditions in past years. The results will help you decide how hot, cold, wet, or windy it might be!

Date:

Astronomy

Oct. 09, 2012 Rise Set
Actual Time 7:48 AM EDT 7:04 PM EDT
Civil Twilight 7:19 AM EDT 7:33 PM EDT
Nautical Twilight 6:44 AM EDT 8:07 PM EDT
Astronomical Twilight 6:10 AM EDT 8:42 PM EDT
Moon 1:07 AM EDT (10/9) 3:46 PM EDT (10/9)
Length of Visible Light 12h 14m
Length of Day
11h 15m
Last Quarter, 37% of the Moon is Illuminated
Oct 9
Last Quarter
Oct 15
New
Oct 21
First Quarter
Oct 29
Full
Nov 6
Last Quarter

Hourly Weather History & Observations

Time (EDT) Temp. Windchill Dew Point Humidity Pressure Visibility Wind Dir Wind Speed Gust Speed Precip Events Conditions
12:15 AM 51.1 °F - 28.9 °F 43% 29.90 in 10.0 mi South 13.8 mph 24.2 mph N/A   Overcast
12:35 AM 50.9 °F - 28.8 °F 43% 29.88 in 10.0 mi South 12.7 mph 19.6 mph N/A   Overcast
12:55 AM 50.9 °F - 29.1 °F 43% 29.88 in 10.0 mi South 10.4 mph 18.4 mph N/A   Overcast
1:15 AM 50.9 °F - 29.3 °F 43% 29.87 in 10.0 mi South 8.1 mph 23.0 mph N/A   Overcast
1:35 AM 50.2 °F - 29.3 °F 45% 29.86 in 10.0 mi South 11.5 mph 17.3 mph N/A   Overcast
1:55 AM 50.9 °F - 31.1 °F 47% 29.86 in 10.0 mi South 8.1 mph - N/A   Overcast
2:15 AM 50.9 °F - 31.8 °F 48% 29.86 in 10.0 mi South 8.1 mph - N/A   Overcast
2:55 AM 50.9 °F - 32.0 °F 48% 29.85 in 10.0 mi South 6.9 mph 17.3 mph N/A   Overcast
3:15 AM 50.9 °F - 32.4 °F 49% 29.84 in 10.0 mi SSW 8.1 mph 17.3 mph N/A   Overcast
3:54 AM 50.9 °F - 33.4 °F 51% 29.82 in 10.0 mi South 11.5 mph 18.4 mph N/A   Mostly Cloudy
4:15 AM 50.9 °F - 34.2 °F 53% 29.81 in 10.0 mi SSW 12.7 mph 20.7 mph N/A   Scattered Clouds
4:35 AM 50.9 °F - 34.3 °F 53% 29.81 in 10.0 mi SSW 11.5 mph 21.9 mph N/A   Scattered Clouds
5:15 AM 50.9 °F - 35.1 °F 55% 29.80 in 10.0 mi SSW 15.0 mph 23.0 mph N/A   Mostly Cloudy
5:35 AM 50.9 °F - 35.1 °F 55% 29.79 in 10.0 mi SSW 16.1 mph 25.3 mph N/A   Overcast
5:54 AM 50.9 °F - 35.2 °F 55% 29.80 in 10.0 mi SSW 15.0 mph 25.3 mph N/A   Mostly Cloudy
6:15 AM 50.9 °F - 35.6 °F 56% 29.80 in 10.0 mi SSW 12.7 mph 24.2 mph N/A   Scattered Clouds
6:35 AM 50.9 °F - 36.3 °F 57% 29.80 in 10.0 mi SSW 11.5 mph 21.9 mph N/A   Mostly Cloudy
6:55 AM 50.0 °F - 35.8 °F 58% 29.79 in 10.0 mi South 15.0 mph 23.0 mph N/A   Scattered Clouds
7:15 AM 50.0 °F - 36.0 °F 59% 29.79 in 10.0 mi SSW 12.7 mph 19.6 mph N/A   Scattered Clouds
7:35 AM 50.0 °F - 36.0 °F 59% 29.79 in 10.0 mi SSW 12.7 mph 21.9 mph N/A   Clear
7:55 AM 50.2 °F - 36.5 °F 59% 29.79 in 10.0 mi SSW 13.8 mph 23.0 mph N/A   Mostly Cloudy
8:15 AM 50.2 °F - 36.9 °F 60% 29.80 in 10.0 mi SSW 11.5 mph 19.6 mph N/A   Overcast
8:35 AM 50.2 °F - 37.4 °F 62% 29.80 in 10.0 mi SSW 13.8 mph 19.6 mph N/A   Mostly Cloudy
8:55 AM 50.7 °F - 37.8 °F 61% 29.80 in 10.0 mi SSW 12.7 mph 17.3 mph N/A   Mostly Cloudy
9:15 AM 50.9 °F - 38.1 °F 62% 29.81 in 10.0 mi SSW 10.4 mph 20.7 mph N/A   Overcast
9:35 AM 50.9 °F - 38.3 °F 62% 29.81 in 10.0 mi SSW 12.7 mph 20.7 mph N/A   Overcast
9:55 AM 50.9 °F - 39.2 °F 64% 29.81 in 10.0 mi SW 12.7 mph 18.4 mph N/A Rain Light Rain
10:15 AM 50.9 °F - 39.2 °F 64% 29.80 in 10.0 mi SSW 12.7 mph - N/A   Overcast
10:34 AM 50.9 °F - 39.6 °F 65% 29.81 in 10.0 mi SSW 11.5 mph 19.6 mph N/A   Overcast
10:55 AM 50.9 °F - 39.9 °F 66% 29.81 in 10.0 mi SSW 11.5 mph 17.3 mph N/A   Overcast
11:15 AM 50.7 °F - 41.0 °F 69% 29.81 in 10.0 mi SSW 10.4 mph 16.1 mph N/A   Drizzle
11:34 AM 50.7 °F - 41.4 °F 70% 29.81 in 10.0 mi SW 8.1 mph - N/A   Drizzle
11:55 AM 50.9 °F - 41.4 °F 70% 29.80 in 10.0 mi SSW 6.9 mph - N/A   Drizzle
12:15 PM 50.7 °F - 41.9 °F 72% 29.79 in 10.0 mi SSW 6.9 mph - N/A   Light Drizzle
12:34 PM 51.1 °F - 41.0 °F 68% 29.79 in 10.0 mi SSW 9.2 mph - N/A   Overcast
12:55 PM 53.6 °F - 42.8 °F 67% 29.78 in 10.0 mi SSW 8.1 mph - N/A   Overcast
1:15 PM 53.6 °F - 42.3 °F 65% 29.77 in 10.0 mi SSW 6.9 mph - N/A   Overcast
1:34 PM 53.6 °F - 42.1 °F 65% 29.76 in 10.0 mi SW 6.9 mph - N/A   Overcast
1:55 PM 53.6 °F - 42.4 °F 66% 29.75 in 10.0 mi SW 3.5 mph - N/A Rain Rain
2:15 PM 53.6 °F - 43.7 °F 69% 29.74 in 10.0 mi Calm Calm - N/A   Overcast
2:34 PM 53.6 °F - 44.2 °F 71% 29.73 in 10.0 mi Calm Calm - N/A   Overcast
2:55 PM 53.6 °F - 44.6 °F 72% 29.73 in 10.0 mi WNW 4.6 mph - N/A   Overcast
3:15 PM 53.6 °F - 44.8 °F 72% 29.71 in 10.0 mi Calm Calm - N/A   Overcast
3:34 PM 53.6 °F - 45.0 °F 73% 29.71 in 10.0 mi Calm Calm - N/A   Overcast
3:55 PM 52.9 °F - 45.7 °F 77% 29.70 in 10.0 mi NE 3.5 mph - N/A   Overcast
4:15 PM 53.6 °F - 45.9 °F 75% 29.68 in 10.0 mi Calm Calm - N/A Rain Light Rain
4:35 PM 53.6 °F - 45.5 °F 74% 29.66 in 10.0 mi Calm Calm - N/A   Overcast
4:55 PM 53.6 °F - 44.6 °F 72% 29.66 in 10.0 mi Calm Calm - N/A   Overcast
5:15 PM 53.6 °F - 45.1 °F 73% 29.66 in 10.0 mi Calm Calm - N/A   Overcast
5:35 PM 53.6 °F - 45.9 °F 75% 29.65 in 10.0 mi Calm Calm - N/A Rain Light Rain
5:55 PM 53.6 °F - 47.1 °F 79% 29.65 in 10.0 mi SW 10.4 mph 16.1 mph N/A   Overcast
6:15 PM 55.4 °F - 45.5 °F 69% 29.66 in 7.0 mi SW 17.3 mph 27.6 mph N/A   Drizzle
6:35 PM 53.6 °F - 46.8 °F 78% 29.66 in 7.0 mi WSW 12.7 mph 23.0 mph N/A Rain Light Rain
6:55 PM 53.6 °F - 48.4 °F 82% 29.67 in 7.0 mi WSW 11.5 mph 21.9 mph N/A Rain Rain
7:15 PM 53.6 °F - 48.4 °F 82% 29.66 in 10.0 mi SW 17.3 mph 23.0 mph N/A Rain Light Rain
7:35 PM 50.4 °F - 45.1 °F 82% 29.67 in 7.0 mi WSW 16.1 mph 31.1 mph N/A Rain Light Rain
7:55 PM 50.9 °F - 46.4 °F 85% 29.67 in 10.0 mi WSW 16.1 mph 26.5 mph N/A Rain Rain
8:15 PM 48.7 °F - 43.9 °F 83% 29.69 in 7.0 mi WSW 19.6 mph 29.9 mph N/A Rain Rain
8:35 PM 48.6 °F - 44.1 °F 84% 29.68 in 7.0 mi SW 18.4 mph 29.9 mph N/A Rain Light Rain
8:55 PM 48.4 °F - 43.9 °F 84% 29.69 in 7.0 mi West 13.8 mph 28.8 mph N/A Rain Rain
9:14 PM 46.4 °F 41.1 °F 41.7 °F 84% 29.70 in 7.0 mi West 11.5 mph 20.7 mph N/A Rain Heavy Rain
9:35 PM 46.2 °F 40.1 °F 41.7 °F 84% 29.70 in 10.0 mi West 13.8 mph 20.7 mph N/A Rain Rain
9:55 PM 46.2 °F 40.1 °F 41.9 °F 85% 29.71 in 10.0 mi West 13.8 mph 20.7 mph N/A Rain Rain
10:14 PM 44.1 °F 38.6 °F 39.6 °F 84% 29.71 in 7.0 mi West 10.4 mph 19.6 mph N/A Rain Rain
10:35 PM 43.0 °F 37.2 °F 38.8 °F 85% 29.72 in 7.0 mi West 10.4 mph - N/A Rain Rain
10:55 PM 41.7 °F 36.1 °F 36.3 °F 81% 29.72 in 7.0 mi West 9.2 mph 17.3 mph N/A Rain Rain
11:14 PM 41.0 °F 37.1 °F 36.5 °F 84% 29.72 in 7.0 mi West 5.8 mph - N/A   Heavy Drizzle
11:35 PM 41.0 °F 36.4 °F 35.6 °F 81% 29.71 in 10.0 mi West 6.9 mph - N/A Rain Light Rain
11:55 PM 41.0 °F 37.1 °F 35.8 °F 82% 29.72 in 5.0 mi West 5.8 mph - N/A Rain Rain